DLH2A EDDS-EDDL

Flight info

Callsign DLH2A
Flight time 0h 50m
Altitude 24000
Route VESID2H VESID DCT BANIM L608 ULNOK T881 UMUPU DCT BIKMU BIKMU1A
Aircraft A320/M-SDE3FGHIRWY/LB1

Departure

Time 2026-04-30 19:17
Airport Stuttgart Airport (EDDS)

Arrival

Time 2026-04-30 20:08
Airport Düsseldorf Airport (EDDL)
Time Latitude Longitude Altitude Speed Heading
2026-04-30 18:56 48.68884 9.19359 1316 ft 0 kts 344°
2026-04-30 19:06 48.68847 9.19375 1315 ft 4 kts 344°
2026-04-30 19:07 48.68804 9.19363 1314 ft 4 kts 67°
2026-04-30 19:07 48.68799 9.19341 1314 ft 0 kts 74°
2026-04-30 19:09 48.68800 9.19344 1314 ft 1 kts 74°
2026-04-30 19:09 48.68806 9.19378 1313 ft 6 kts 74°
2026-04-30 19:09 48.68820 9.19458 1312 ft 10 kts 72°
2026-04-30 19:10 48.68874 9.19737 1307 ft 18 kts 74°
2026-04-30 19:10 48.68783 9.19941 1295 ft 8 kts 156°
2026-04-30 19:11 48.68726 9.19968 1291 ft 4 kts 164°
2026-04-30 19:11 48.68711 9.19974 1290 ft 1 kts 164°
2026-04-30 19:14 48.68710 9.19975 1290 ft 1 kts 164°
2026-04-30 19:14 48.68706 9.19976 1290 ft 0 kts 165°
2026-04-30 19:15 48.68681 9.19987 1289 ft 12 kts 162°
2026-04-30 19:15 48.68587 9.20094 1283 ft 0 kts 68°
2026-04-30 19:15 48.68589 9.20106 1285 ft 0 kts 70°
2026-04-30 19:16 48.68591 9.20113 1284 ft 0 kts 70°
2026-04-30 19:17 48.68608 9.20196 1280 ft 33 kts 74°
2026-04-30 19:17 48.68993 9.22223 1251 ft 156 kts 73°
2026-04-30 19:17 48.69278 9.23795 1934 ft 150 kts 76°
2026-04-30 19:18 48.69753 9.26402 2916 ft 167 kts 77°
2026-04-30 19:18 48.70219 9.28882 3328 ft 200 kts 77°
2026-04-30 19:18 48.70619 9.30998 3716 ft 224 kts 76°
2026-04-30 19:19 48.71068 9.33338 4353 ft 237 kts 76°
2026-04-30 19:19 48.71539 9.35775 5176 ft 245 kts 76°
2026-04-30 19:19 48.72676 9.40762 6803 ft 261 kts 57°
2026-04-30 19:20 48.74109 9.42505 7563 ft 273 kts 28°
2026-04-30 19:20 48.75938 9.43411 8423 ft 279 kts 15°
2026-04-30 19:20 48.77297 9.43553 8999 ft 287 kts 357°
2026-04-30 19:21 48.79092 9.42756 9764 ft 295 kts 338°
2026-04-30 19:21 48.81639 9.40827 10703 ft 308 kts 336°
2026-04-30 19:22 48.86064 9.37728 11436 ft 346 kts 339°
2026-04-30 19:22 48.92958 9.18422 15555 ft 383 kts 280°
2026-04-30 19:23 48.96767 8.94591 19089 ft 396 kts 308°
2026-04-30 19:24 49.03310 8.87254 20644 ft 390 kts 342°
2026-04-30 19:24 49.06563 8.85323 21301 ft 393 kts 342°
2026-04-30 19:24 49.16796 8.79249 23222 ft 401 kts 347°
2026-04-30 19:25 49.33214 8.73779 24328 ft 401 kts 351°
2026-04-30 19:26 49.41316 8.71097 24329 ft 401 kts 351°
2026-04-30 19:26 49.46606 8.69342 24329 ft 402 kts 351°
2026-04-30 19:26 49.49346 8.68428 24326 ft 402 kts 351°
2026-04-30 19:27 49.54785 8.66617 24329 ft 403 kts 351°
2026-04-30 19:27 49.60262 8.64777 24330 ft 403 kts 351°
2026-04-30 19:28 49.62998 8.63859 24330 ft 403 kts 351°
2026-04-30 19:28 49.68465 8.61997 24325 ft 404 kts 348°
2026-04-30 19:29 49.73548 8.58178 24323 ft 413 kts 326°
2026-04-30 19:29 49.75723 8.55248 24327 ft 416 kts 320°
2026-04-30 19:30 49.82008 8.46086 24331 ft 416 kts 320°
2026-04-30 19:30 49.86419 8.40341 24334 ft 411 kts 331°
2026-04-30 19:31 49.91236 8.35553 24334 ft 412 kts 331°
2026-04-30 19:31 49.93649 8.33142 24348 ft 412 kts 331°
2026-04-30 19:31 49.98433 8.28332 24352 ft 412 kts 330°
2026-04-30 19:32 50.00835 8.25915 24353 ft 413 kts 330°
2026-04-30 19:32 50.03247 8.23483 24354 ft 413 kts 330°
2026-04-30 19:32 50.05648 8.21059 24341 ft 413 kts 330°
2026-04-30 19:32 50.08067 8.18618 24344 ft 413 kts 330°
2026-04-30 19:33 50.10481 8.16187 24343 ft 414 kts 330°
2026-04-30 19:33 50.12897 8.13749 24343 ft 414 kts 330°
2026-04-30 19:33 50.15314 8.11305 24336 ft 414 kts 330°
2026-04-30 19:33 50.17730 8.08855 24336 ft 414 kts 330°
2026-04-30 19:34 50.20112 8.06432 24336 ft 415 kts 330°
2026-04-30 19:34 50.22527 8.03971 24336 ft 415 kts 330°
2026-04-30 19:34 50.27369 7.99041 24337 ft 415 kts 330°
2026-04-30 19:35 50.29791 7.96571 24338 ft 416 kts 330°
2026-04-30 19:35 50.32212 7.94098 24339 ft 416 kts 330°
2026-04-30 19:35 50.34629 7.91625 24337 ft 416 kts 330°
2026-04-30 19:35 50.37049 7.89146 24338 ft 416 kts 330°
2026-04-30 19:36 50.39472 7.86664 24260 ft 417 kts 330°
2026-04-30 19:36 50.41795 7.84012 23458 ft 423 kts 321°
2026-04-30 19:36 50.45343 7.76676 22310 ft 422 kts 298°
2026-04-30 19:37 50.46638 7.72574 21815 ft 417 kts 298°
2026-04-30 19:37 50.47924 7.68506 21315 ft 413 kts 298°
2026-04-30 19:37 50.49192 7.64488 20808 ft 410 kts 298°
2026-04-30 19:37 50.50449 7.60489 20299 ft 407 kts 298°
2026-04-30 19:38 50.51697 7.56502 19786 ft 405 kts 298°
2026-04-30 19:38 50.52914 7.52593 19286 ft 403 kts 298°
2026-04-30 19:38 50.54145 7.48639 18769 ft 402 kts 298°
2026-04-30 19:38 50.55447 7.44798 18135 ft 400 kts 306°
2026-04-30 19:39 50.57130 7.41510 17599 ft 395 kts 317°
2026-04-30 19:39 50.59157 7.38653 17134 ft 389 kts 322°
2026-04-30 19:39 50.61192 7.35882 16654 ft 387 kts 322°
2026-04-30 19:39 50.63218 7.33116 16187 ft 384 kts 321°
2026-04-30 19:40 50.65136 7.30488 15737 ft 382 kts 321°
2026-04-30 19:40 50.67182 7.27677 15265 ft 380 kts 321°
2026-04-30 19:40 50.69165 7.24946 14807 ft 378 kts 321°
2026-04-30 19:40 50.71137 7.22226 14345 ft 376 kts 321°
2026-04-30 19:41 50.73105 7.19513 13846 ft 374 kts 321°
2026-04-30 19:41 50.75055 7.16815 13363 ft 371 kts 321°
2026-04-30 19:41 50.76983 7.14140 12899 ft 368 kts 321°
2026-04-30 19:41 50.78899 7.11480 12424 ft 365 kts 321°
2026-04-30 19:42 50.80771 7.08889 11963 ft 362 kts 321°
2026-04-30 19:42 50.82660 7.06278 11492 ft 360 kts 321°
2026-04-30 19:42 50.84542 7.03675 11002 ft 358 kts 320°
2026-04-30 19:42 50.86400 7.01099 10659 ft 352 kts 320°
2026-04-30 19:43 50.88208 6.98583 10551 ft 339 kts 320°
2026-04-30 19:43 50.89948 6.96154 10415 ft 328 kts 320°
2026-04-30 19:43 50.91624 6.93811 10295 ft 317 kts 320°
2026-04-30 19:44 50.94872 6.89286 9504 ft 307 kts 320°
2026-04-30 19:44 50.96461 6.87073 8875 ft 303 kts 320°
2026-04-30 19:44 50.98040 6.84868 8245 ft 300 kts 320°
2026-04-30 19:44 50.99598 6.82687 7631 ft 298 kts 320°
2026-04-30 19:45 51.01148 6.80515 7010 ft 296 kts 320°
2026-04-30 19:45 51.02690 6.78351 6532 ft 296 kts 320°
2026-04-30 19:45 51.04228 6.76194 6140 ft 294 kts 320°
2026-04-30 19:45 51.05763 6.74038 5723 ft 294 kts 319°
2026-04-30 19:46 51.07285 6.71895 5451 ft 289 kts 319°
2026-04-30 19:46 51.08764 6.69811 5008 ft 282 kts 319°
2026-04-30 19:46 51.10206 6.67779 4415 ft 280 kts 320°
2026-04-30 19:46 51.11638 6.65856 4251 ft 260 kts 323°
2026-04-30 19:47 51.13042 6.64114 3890 ft 254 kts 326°
2026-04-30 19:47 51.13977 6.62988 3593 ft 253 kts 327°
2026-04-30 19:47 51.15924 6.60923 2926 ft 249 kts 341°
2026-04-30 19:47 51.17494 6.60255 2797 ft 217 kts
2026-04-30 19:48 51.18864 6.60302 2669 ft 183 kts 17°
2026-04-30 19:48 51.20002 6.60746 2528 ft 157 kts 29°
2026-04-30 19:48 51.20937 6.61444 2366 ft 145 kts 40°
2026-04-30 19:48 51.21719 6.62364 2196 ft 137 kts 52°
2026-04-30 19:49 51.22349 6.63462 2020 ft 131 kts 61°
2026-04-30 19:49 51.23472 6.65800 1687 ft 133 kts 60°
2026-04-30 19:49 51.24031 6.66972 1509 ft 133 kts 60°
2026-04-30 19:50 51.24593 6.68146 1325 ft 134 kts 59°
2026-04-30 19:50 51.25154 6.69321 1109 ft 133 kts 58°
2026-04-30 19:50 51.25719 6.70488 929 ft 135 kts 57°
2026-04-30 19:50 51.26281 6.71675 788 ft 134 kts 55°
2026-04-30 19:51 51.26861 6.72872 656 ft 146 kts 53°
2026-04-30 19:51 51.27506 6.74220 1277 ft 161 kts 58°
2026-04-30 19:51 51.28209 6.75747 1752 ft 182 kts 60°
2026-04-30 19:51 51.28999 6.77488 2226 ft 201 kts 62°
2026-04-30 19:52 51.29804 6.79356 2975 ft 208 kts 62°
2026-04-30 19:52 51.30636 6.81312 3715 ft 217 kts 62°
2026-04-30 19:52 51.31494 6.83324 3946 ft 219 kts 62°
2026-04-30 19:52 51.32357 6.85335 4003 ft 219 kts 62°
2026-04-30 19:53 51.33222 6.87346 3997 ft 219 kts 62°
2026-04-30 19:53 51.34111 6.89333 4002 ft 222 kts 54°
2026-04-30 19:53 51.35365 6.90833 4003 ft 232 kts 29°
2026-04-30 19:53 51.36960 6.91398 4003 ft 241 kts
2026-04-30 19:54 51.38606 6.90815 4002 ft 253 kts 336°
2026-04-30 19:54 51.39992 6.89068 4001 ft 262 kts 306°
2026-04-30 19:54 51.40742 6.86441 4002 ft 261 kts 277°
2026-04-30 19:54 51.40710 6.83583 4002 ft 257 kts 257°
2026-04-30 19:55 51.40468 6.80744 3998 ft 257 kts 258°
2026-04-30 19:55 51.40232 6.77874 4001 ft 265 kts 258°
2026-04-30 19:55 51.39993 6.74923 4001 ft 268 kts 259°
2026-04-30 19:55 51.39757 6.71962 3999 ft 269 kts 259°
2026-04-30 19:56 51.39519 6.68988 3999 ft 270 kts 259°
2026-04-30 19:56 51.39280 6.66018 3996 ft 269 kts 259°
2026-04-30 19:56 51.39043 6.63077 3995 ft 269 kts 258°
2026-04-30 19:56 51.38801 6.60109 4000 ft 269 kts 258°
2026-04-30 19:57 51.38556 6.57127 3997 ft 271 kts 258°
2026-04-30 19:57 51.38310 6.54135 3996 ft 272 kts 258°
2026-04-30 19:57 51.38063 6.51139 3991 ft 271 kts 258°
2026-04-30 19:57 51.37810 6.48153 3744 ft 268 kts 256°
2026-04-30 19:58 51.37231 6.45452 3592 ft 248 kts 232°
2026-04-30 19:58 51.36167 6.43448 3404 ft 230 kts 211°
2026-04-30 19:58 51.34803 6.42270 3087 ft 218 kts 189°
2026-04-30 19:58 51.33371 6.41950 2980 ft 205 kts 171°
2026-04-30 19:59 51.32005 6.42364 2974 ft 199 kts 155°
2026-04-30 19:59 51.30806 6.43420 2991 ft 196 kts 141°
2026-04-30 19:59 51.28597 6.45974 2985 ft 196 kts 142°
2026-04-30 20:00 51.27394 6.46971 2980 ft 200 kts 165°
2026-04-30 20:00 51.25998 6.46682 2980 ft 214 kts 199°
2026-04-30 20:00 51.24771 6.45234 2987 ft 223 kts 215°
2026-04-30 20:00 51.23668 6.43467 2982 ft 227 kts 223°
2026-04-30 20:01 51.21384 6.40530 2987 ft 195 kts 187°
2026-04-30 20:01 51.20092 6.40390 3006 ft 180 kts 165°
2026-04-30 20:01 51.18945 6.41018 3004 ft 172 kts 145°
2026-04-30 20:02 51.17494 6.43879 3016 ft 169 kts 109°
2026-04-30 20:02 51.17341 6.45785 3019 ft 187 kts 90°
2026-04-30 20:03 51.18001 6.50062 3013 ft 203 kts 80°
2026-04-30 20:03 51.18367 6.52205 3016 ft 203 kts 80°
2026-04-30 20:03 51.18737 6.54367 3016 ft 199 kts 80°
2026-04-30 20:03 51.19152 6.56413 2991 ft 191 kts 70°
2026-04-30 20:04 51.19857 6.58205 2826 ft 191 kts 62°
2026-04-30 20:04 51.20637 6.59879 2588 ft 184 kts 60°
2026-04-30 20:04 51.21378 6.61425 2368 ft 165 kts 60°
2026-04-30 20:05 51.22623 6.64025 1919 ft 137 kts 61°
2026-04-30 20:05 51.23195 6.65217 1720 ft 134 kts 61°
2026-04-30 20:05 51.24320 6.67568 1409 ft 132 kts 60°
2026-04-30 20:06 51.24882 6.68749 1228 ft 134 kts 59°
2026-04-30 20:06 51.25439 6.69902 1035 ft 133 kts 58°
2026-04-30 20:06 51.26005 6.71087 850 ft 134 kts 56°
2026-04-30 20:06 51.26573 6.72275 652 ft 136 kts 54°
2026-04-30 20:07 51.27143 6.73457 463 ft 135 kts 52°
2026-04-30 20:07 51.27709 6.74652 322 ft 135 kts 53°
2026-04-30 20:07 51.28738 6.76831 127 ft 75 kts 52°
2026-04-30 20:08 51.28970 6.77320 126 ft 45 kts 52°
2026-04-30 20:08 51.29007 6.77558 124 ft 19 kts 123°
2026-04-30 20:08 51.28966 6.77619 126 ft 4 kts 142°
2026-04-30 20:08 51.28943 6.77644 126 ft 7 kts 154°
2026-04-30 20:09 51.28879 6.77609 126 ft 14 kts 234°
2026-04-30 20:09 51.28808 6.77453 128 ft 19 kts 228°
2026-04-30 20:09 51.28645 6.77102 128 ft 26 kts 232°
2026-04-30 20:10 51.28426 6.76646 126 ft 15 kts 232°
2026-04-30 20:10 51.28369 6.76525 123 ft 13 kts 232°
2026-04-30 20:10 51.28298 6.76497 124 ft 10 kts 171°
2026-04-30 20:11 51.28189 6.76433 127 ft 12 kts 188°
2026-04-30 20:11 51.28121 6.76426 126 ft 7 kts 158°
2026-04-30 20:11 51.28112 6.76486 126 ft 5 kts 93°
2026-04-30 20:12 51.28109 6.76539 128 ft 3 kts 97°
2026-04-30 20:12 51.28109 6.76541 128 ft 0 kts 96°